Regional Weather Roundup
Issued by NWS State College, PA

Home | Current Version | Previous Version | Text Only | Print | Product List | Glossary On
Versions: 1 2 3 4 5 6 7 8 9 10 11 12 13 14 15 16 17 18 19 20 21 22 23 24 25 26 27 28 29 30 31 32 33 34 35 36 37 38 39 40 41 42 43 44 45 46 47 48 49 50
000
ASUS41 KCTP 200403
RWRCTP

REGIONAL WEATHER ROUNDUP
NATIONAL WEATHER SERVICE STATE COLLEGE PA
1200 AM EDT SAT SEP 20 2014

Note: "fair" indicates few or no clouds below 12,000 feet with no
significant weather and/or obstructions to visibility.

* = STATION THAT DOES NOT REPORT PRECIPITATION /E.G. RAIN...SNOW...ETC/
    THUNDER OR FOG.

PAZ002>004-007>009-013>016-020>023-029>032-200500-
WESTERN PENNSYLVANIA

CITY           SKY/WX    TMP DP  RH WIND       PRES   REMARKS
ERIE           MOCLDY    62  52  69 S14       30.09S
MEADVILLE      CLEAR     60  52  74 VRB6      30.12S
FRANKLIN*      CLEAR     57  52  82 S12       30.16S
NEW CASTLE     NOT AVBL
BEAVER COUNTY  NOT AVBL
BUTLER*        CLEAR     61  52  72 S6        30.18R
PITTSBURGH INT CLEAR     61  55  81 S7        30.15S
PITTSBURGH     CLEAR     61  52  72 S8        30.16S
INDIANA*       CLEAR     63  54  72 VRB7      30.23S
LATROBE        CLEAR     63  55  77 S8        30.19S
WASHINGTON CO* CLEAR     61  54  77 S5        30.17S
$$

PAZ004>006-010>012-017>019-024>028-033>037-041-042-045-046-049>053-200500-
CENTRAL PENNSYLVANIA

CITY           SKY/WX    TMP DP  RH WIND       PRES   REMARKS
BRADFORD       CLEAR     56  50  80 S10       30.18F
DUBOIS         CLEAR     57  52  83 SE8       30.18F
CLEARFIELD     PTCLDY    54  52  93 CALM      30.22F
JOHNSTOWN      PTCLDY    57  53  86 S13       30.23F
ALTOONA        CLOUDY    62  55  77 S6        30.25F
STATE COLLEGE  CLOUDY    61  54  77 S5        30.24F
WILLIAMSPORT   PTCLDY    62  51  67 SE13G21   30.25R
SELINSGROVE    CLOUDY    62  53  72 VRB7G21   30.27F
FT INDIANTOWN  CLOUDY    59  57  94 E3        30.33S
CAPITAL CITY   CLOUDY    61  54  77 SE10      30.31R
HARRISBURG     CLOUDY    61  55  81 SE14      30.30S
YORK           PTCLDY    58  55  90 E6        30.31S
$$

PAZ038>040-043-044-047-048-054-055-060>062-067>071-200500-
EASTERN PENNSYLVANIA

CITY           SKY/WX    TMP DP  RH WIND       PRES   REMARKS
SCRANTON       PTCLDY    56  49  77 VRB5      30.27F
MOUNT POCONO   CLOUDY    51  47  86 SE8       30.33F
ALLENTOWN      CLEAR     57  50  77 SE6       30.34F
QUAKERTOWN*    CLEAR     54  50  87 CALM      30.35F
READING        CLOUDY    59  52  77 SE8       30.32F
LANCASTER      CLEAR     55  52  89 E5        30.32F
COATESVILLE    PTCLDY    55  54  94 SE6       30.34F
POTTSTOWN      PTCLDY    54  51  90 CALM      30.35F
BLUE BELL      CLEAR     54  52  94 CALM      30.33F
DOYLESTOWN     CLEAR     54  52  93 CALM      30.34F
WILLOW GROVE   NOT AVBL
NORTH PHILA    MOCLDY    58  51  78 E7        30.35F
PHILADELPHIA   PTCLDY    59  54  83 E7        30.34F
$$


USA.gov is the U.S. government's official web portal to all federal, state and local government web resources and services.